Погода в Еленском

Россия / Костромская область     58°18′14″N   43°44′15″E
темп.,
°C
ветер,
м/с
пор.,
м/с
влажн.,
%
обл.,
%
осадки,
мм/ч
давл.,
гПа
погр.,
м
11 апреля, вс
вс1100:00−1ю39920 0.0 1026158
03:00−2ю311911 0.0 1026203
06:000ююз311900 0.0 1026252
09:00+6юз47705 0.0 1027433
12:00+10зюз46635 0.0 1028965
15:00+10зюз4663100 0.0 10291360
18:00+6ссв129498 0.0 103237
21:00+3зюз119720 0.0 103410
12 апреля, пн
пн1200:000в009727 0.0 103510
03:00+2всв129696 0.0 103743
06:00+3в1296100 0.0 103754
09:00+7вюв247794 0.0 1038294
12:00+11юв24636 0.0 1037785
15:00+13юв345796 0.0 10361188
18:00+10юв3776100 0.0 1034200
21:00+7юв31088100 0.0 1034316
13 апреля, вт
вт1300:00+7юв31186100 0.0 1033397
03:00+6юв31094100 0.0 1031330
06:00+6ююв3996100 0.0 1030259
09:00+11ю4878100 0.0 1029403
12:00+17ю585784 0.0 1027887
15:00+18ююз4953100 0.0 10261214
18:00+15ююз41060100 0.0 1025421
21:00+11ю31277100 0.0 1025266
14 апреля, ср
ср1400:00+8ю3107498 0.0 1025191
03:00+7ююз397983 0.0 1025143
06:00+7ю268278 0.0 1024113
09:00+13ю3661100 0.0 1023305
12:00+18ююз584311 0.0 1022914
15:00+20ююз5940100 0.0 10211657
18:00+16ююз41051100 0.0 1020354
21:00+11ююз3969100 0.0 1021148
15 апреля, чт
чт1500:00+10юз2474100 0.0 102054
03:00+8с1289100 0.0 102031
06:00+8св2697100 0.0 1020239
09:00+10св238192 0.0 1019540
12:00+12с327293 0.0 1019795
15:00+10с4573100 0.0 1019664
18:00+5с4787100 0.0 1019586
21:00+3с41096100 1.4 1020531